Dewpoint
51 51 51 50 52 50 51 51 51 52 51 52 53 54 54 55 55 55 55 55 55 55 54 54 52 52 45 39 40 45 48 48 50 52 48 45 42 41 38 39 40 39 38 39 40 40 40
51 51 51 51 50 51 51 51 51 52 52 52 53 54 54 54 55 54 54 55 54 54 52 52 51 47 41 36 43 45 45 48 48 49 46 46 44 43 42 40 38 40 42 41 40 39 38
50 50 50 50 51 52 52 52 52 51 52 52 53 53 54 54 54 54 54 54 54 54 50 49 50 44 38 38 43 44 46 47 49 47 44 46 46 42 41 39 42 41 35 37 37 39 37
50 50 50 51 51 52 52 53 52 53 52 52 52 52 53 54 54 54 54 54 54 53 51 47 48 43 36 41 44 44 45 47 48 49 47 48 47 43 42 42 41 39 37 32 37 37 37
50 50 51 51 51 51 52 52 52 53 52 52 52 52 53 53 54 53 53 53 53 52 50 48 40 41 33 41 39 43 45 44 46 47 48 47 45 42 40 36 34 37 31 32 33 34 34
49 50 50 50 51 51 52 52 52 52 52 52 52 53 53 54 54 53 53 52 49 42 42 40 39 33 32 33 39 41 44 45 45 45 44 43 41 37 37 35 28 31 31 32 29 30 36
49 50 50 50 50 51 52 52 52 52 52 52 51 52 53 53 53 52 47 33 24 25 33 30 31 32 33 36 40 40 42 42 42 42 37 41 36 31 34 35 33 29 30 26 24 30 34
49 49 50 50 51 51 52 52 52 52 51 52 51 52 53 52 52 49 42 27 28 33 22 35 35 36 36 38 35 34 41 36 37 32 33 31 27 29 32 32 30 28 23 22 26 31 33
49 49 50 50 51 51 51 52 52 52 51 52 52 53 53 51 49 39 37 37 44 42 28 27 32 32 32 34 33 32 34 36 34 31 32 28 27 30 28 26 24 22 21 21 23 33 35
49 49 50 50 51 51 51 52 52 52 53 53 52 53 52 50 38 41 35 43 44 37 21 17 24 29 32 33 27 34 34 32 29 28 32 27 29 28 26 25 25 20 24 23 24 24 23
49 49 50 50 50 51 51 52 51 52 53 53 53 52 50 44 38 39 42 44 43 31 6 18 24 32 31 29 28 28 34 31 27 26 26 24 27 28 24 26 29 22 25 25 25 24 25
48 49 50 50 50 51 52 52 52 52 52 52 53 52 48 41 40 44 44 41 36 17 1 20 26 27 27 26 26 28 29 31 31 27 26 26 29 31 27 29 30 27 25 25 24 25 17
48 48 49 49 50 50 52 52 52 52 52 52 52 50 45 44 38 44 43 38 21 -1 19 19 24 28 28 24 23 27 26 26 25 19 18 22 21 27 30 23 24 23 23 19 18 19 17
49 49 48 49 49 50 52 52 52 52 52 52 51 45 45 44 45 44 39 26 1 12 20 27 29 28 23 24 22 24 22 20 28 26 22 19 8 20 28 23 19 23 22 16 11 15 14
49 50 49 49 49 50 52 52 52 52 51 52 48 44 43 45 46 42 32 10 7 17 27 27 26 22 19 21 22 22 24 22 26 28 20 21 13 23 28 28 26 22 14 21 18 21 14
50 50 50 50 49 50 51 51 52 52 51 51 42 41 41 45 43 35 24 16 21 28 30 31 20 24 19 18 19 22 22 25 24 29 29 25 17 22 23 26 28 23 24 16 22 14 10
51 50 50 50 50 51 51 52 52 51 51 48 42 35 43 45 40 28 14 17 27 32 30 29 24 22 22 19 18 21 21 24 28 27 30 25 23 16 18 20 21 21 21 20 20 21 12
51 51 50 50 50 51 50 51 52 51 51 40 35 24 42 43 32 28 18 25 30 30 33 31 30 27 24 19 17 18 19 23 30 30 24 26 22 17 15 26 27 25 22 21 13 10 17
51 51 50 50 50 51 50 51 51 51 50 42 30 31 43 39 20 16 24 28 30 29 29 29 28 29 25 22 16 19 18 27 29 27 16 23 19 13 5 17 25 22 20 22 21 20 13
51 51 50 50 50 51 50 51 51 51 50 41 33 27 29 32 30 24 22 23 24 31 30 29 26 26 24 23 22 19 17 25 30 27 29 25 19 17 7 14 19 15 20 22 19 13 7
52 51 51 50 50 51 51 51 51 51 49 41 33 29 29 25 27 26 25 24 23 22 29 29 24 24 23 19 20 19 19 21 28 30 28 22 18 13 15 16 17 16 14 20 20 18 10
52 51 51 51 50 51 51 51 51 51 48 39 28 30 32 26 29 26 25 23 23 24 26 25 25 24 25 22 21 20 22 22 22 25 27 25 20 22 18 18 18 18 18 16 17 21 21
53 52 51 51 50 51 51 51 51 51 48 40 38 38 25 26 28 26 24 23 23 27 27 27 26 25 24 25 26 27 27 26 25 24 23 25 23 20 14 20 20 12 16 20 16 16 16
49 53 52 51 50 51 51 51 51 51 47 40 38 37 25 25 25 26 25 25 25 27 25 29 28 27 28 32 31 30 30 29 29 28 27 25 24 22 18 19 8 14 21 22 21 20 17
48 53 52 51 51 51 51 51 52 51 49 43 40 37 28 24 25 26 26 26 27 28 29 28 29 30 33 29 24 20 21 24 26 28 28 28 25 21 17 17 16 17 19 19 18 15 20
46 51 52 51 51 51 51 51 52 52 50 44 42 42 35 25 26 25 25 27 26 26 26 29 33 33 31 28 25 14 13 18 21 25 28 28 27 23 22 15 11 14 19 20 19 14 18
44 51 52 51 51 51 51 51 52 52 50 45 43 43 37 28 30 28 24 25 28 27 25 29 30 30 31 26 22 19 16 22 17 19 24 25 25 23 22 19 18 22 19 20 14 14 18
41 48 52 51 51 51 51 51 52 52 51 47 45 44 40 37 37 34 30 29 30 28 23 28 29 29 28 25 23 21 22 23 21 20 23 21 21 22 23 20 15 23 20 17 19 21 21
39 41 48 52 51 51 51 51 52 52 51 48 44 44 44 40 38 41 39 35 32 30 27 31 28 29 29 26 26 26 25 26 24 20 25 20 21 20 22 20 23 23 20 22 23 24 24
Wind_Speed
12 12 13 13 15 15 15 16 15 14 13 12 12 12 12 12 13 12 13 13 13 11 7 6 8 12 3 4 2 5 11 12 3 2 1 1 3 2 5 5 4 9 6 7 7 8 9
11 12 13 14 14 15 16 16 16 16 15 13 13 12 12 13 14 13 13 13 12 10 8 6 7 7 4 7 3 5 10 6 6 1 1 2 1 5 0 2 5 2 2 8 14 13 8
11 11 12 12 14 16 17 17 17 17 17 15 14 13 13 13 14 14 13 13 12 10 8 5 5 3 2 4 3 7 6 4 4 2 2 2 2 3 3 6 3 3 6 9 15 6 7
11 11 12 13 15 16 17 17 18 18 18 17 15 13 13 13 13 14 13 13 12 11 7 3 4 2 4 3 4 4 3 2 6 5 4 3 1 1 2 1 3 3 2 2 10 13 9
11 11 12 13 15 16 17 18 19 19 19 19 17 14 13 13 13 14 14 14 12 6 5 4 1 2 4 4 4 4 1 2 2 2 5 2 2 4 4 2 3 2 2 4 13 16 10
10 11 12 13 14 15 17 18 19 20 20 20 18 15 14 13 12 12 14 10 6 1 3 1 0 1 2 7 5 5 2 3 0 1 2 2 3 3 2 5 3 3 4 3 10 6 7
10 10 11 13 13 15 16 18 19 20 21 21 18 15 14 12 11 10 6 2 2 2 3 1 1 2 8 8 3 2 1 1 2 1 2 2 3 3 6 6 9 5 7 7 3 3 6
9 10 10 11 13 14 16 17 18 19 20 21 19 16 14 12 9 5 1 3 4 1 3 4 4 6 6 1 4 4 1 2 2 4 3 1 5 3 9 13 14 11 5 4 3 4 1
9 10 11 11 12 13 15 17 18 20 21 21 19 16 13 12 4 4 3 4 1 1 1 3 4 4 5 1 3 6 3 2 2 5 5 2 6 11 3 2 3 4 3 2 1 4 7
10 10 11 12 12 13 14 16 18 19 21 20 19 15 13 11 1 1 3 3 2 2 3 5 3 2 2 1 3 3 0 1 2 5 6 4 8 8 6 6 4 3 9 4 2 2 2
10 12 13 13 14 14 14 16 17 18 20 20 18 13 11 6 5 2 1 2 2 1 3 6 5 1 3 3 4 2 1 1 4 7 2 4 7 8 6 5 4 1 4 2 3 3 2
11 12 13 13 15 15 15 16 17 18 19 19 18 10 6 2 3 1 2 3 3 2 2 4 4 6 5 3 3 6 3 4 2 4 4 6 2 1 2 6 2 4 3 5 5 3 3
12 13 14 14 16 16 16 16 17 18 20 19 18 5 4 1 1 2 2 3 2 2 1 4 3 6 5 4 5 6 4 7 6 7 7 7 2 2 2 0 1 3 3 3 2 0 4
15 15 13 15 15 16 16 16 18 19 21 20 12 1 4 3 4 2 2 3 2 1 4 3 2 7 3 4 2 7 3 3 2 3 3 7 3 2 2 1 3 3 3 3 2 2 3
16 16 13 15 16 16 17 17 17 19 21 21 3 2 2 1 3 3 3 2 2 3 1 4 5 2 3 1 2 5 4 2 2 1 2 5 5 5 3 5 4 2 1 3 4 1 2
17 16 15 15 17 16 16 16 17 18 20 15 1 1 1 0 2 3 2 2 2 3 3 2 1 0 3 5 5 3 3 1 2 1 2 3 5 2 4 3 3 3 2 3 3 2 4
19 18 16 16 16 16 16 15 16 17 19 6 2 1 1 0 2 4 1 3 3 5 3 3 3 2 4 3 2 3 2 3 1 2 2 1 2 4 1 2 1 3 2 2 1 2 2
20 20 19 17 16 16 16 15 14 15 19 5 1 4 2 1 1 1 1 3 1 3 2 3 3 5 3 2 3 3 3 4 3 1 1 0 1 7 3 1 1 2 3 3 2 2 2
23 21 21 19 17 17 15 15 13 11 10 4 3 3 1 1 3 2 2 3 3 4 5 3 4 6 3 3 3 4 3 2 4 3 1 3 1 7 3 2 1 1 1 3 3 2 5
25 24 22 20 18 18 17 14 12 9 6 1 2 4 1 2 0 2 2 3 2 3 4 4 3 2 3 4 7 3 3 1 2 2 4 3 2 6 8 5 2 6 2 3 3 2 2
28 26 24 22 21 19 17 16 12 7 5 3 1 4 1 3 4 4 3 2 3 4 4 4 3 9 6 4 3 5 3 3 0 1 1 1 4 4 12 17 11 12 13 9 11 8 7
32 30 27 24 23 21 18 17 14 7 5 3 4 4 1 1 1 4 5 6 6 4 5 5 8 2 11 7 6 5 3 3 3 1 1 1 3 4 9 1 3 11 12 13 13 10 16
33 33 30 27 24 22 19 18 15 9 8 5 3 1 2 3 4 4 6 7 7 5 5 4 7 3 7 15 10 7 6 3 3 4 2 1 2 4 6 6 11 10 5 10 7 7 7
31 36 33 30 27 25 22 20 17 13 13 3 4 4 5 7 10 10 6 8 10 10 6 3 6 5 1 2 2 1 2 5 5 7 5 4 2 2 7 9 3 1 2 3 10 9 16
35 34 36 33 30 28 25 22 19 17 13 7 3 4 6 7 9 9 12 8 4 3 5 6 6 3 2 2 2 5 3 2 3 1 5 4 4 3 4 5 9 2 1 1 2 5 7
44 30 40 36 32 30 27 24 22 19 16 6 6 5 3 2 12 5 5 9 9 6 3 5 1 2 3 2 2 4 6 3 3 2 3 4 3 3 2 3 4 1 1 2 1 7 1
46 30 43 37 33 30 28 25 23 22 19 8 5 7 3 5 5 7 8 8 7 4 3 2 4 4 1 4 6 7 6 2 4 4 6 4 3 10 8 5 9 4 3 2 2 4 1
41 36 38 35 33 31 29 26 24 23 22 13 5 13 7 5 6 7 6 6 5 5 7 6 4 2 4 6 6 5 6 4 2 3 5 8 9 6 4 4 6 3 3 2 3 4 4
36 41 25 33 30 29 28 27 27 26 24 18 7 8 7 4 4 3 7 5 6 8 8 8 2 5 7 4 3 1 4 3 4 3 3 3 5 1 8 5 2 3 4 4 4 8 7
Wind_Direction
36 31 22 21 15 8 6 7 4 357 350 340 334 331 330 325 322 323 321 324 330 334 330 341 347 347 27 25 327 288 332 336 346 149 277 181 280 228 195 181 241 252 275 277 278 299 284
31 25 23 15 10 4 4 4 1 358 353 343 335 336 328 321 318 316 316 321 325 331 332 342 353 1 36 26 275 330 342 349 8 154 332 191 217 281 332 221 209 256 311 304 288 281 291
28 24 20 13 5 0 1 1 357 356 353 347 336 331 329 319 313 311 312 313 315 324 327 322 4 43 12 318 322 329 4 20 357 45 9 353 314 238 138 346 307 254 267 313 277 239 261
22 22 16 9 6 359 359 358 357 352 353 349 339 329 325 321 315 311 309 306 305 304 299 327 16 72 296 266 308 341 7 19 48 35 68 356 357 132 214 151 261 229 101 313 273 209 245
22 18 15 8 6 359 357 357 355 352 351 350 343 332 322 318 317 313 309 308 305 293 270 292 46 47 341 324 329 325 71 24 56 46 55 338 30 29 332 203 287 235 225 213 302 200 188
19 16 14 11 4 359 355 356 352 351 349 349 346 335 324 318 316 315 310 298 307 50 55 22 55 19 324 320 306 315 160 147 343 85 334 29 56 324 208 188 251 252 242 186 253 172 193
6 12 11 10 1 356 354 353 350 349 348 349 347 338 326 322 324 327 343 38 358 304 39 61 292 206 284 308 304 289 275 98 149 293 338 272 297 352 169 206 250 259 251 206 296 165 174
353 357 5 5 1 355 353 351 346 346 347 347 347 340 329 326 333 349 37 95 106 173 310 242 260 277 273 246 313 306 335 7 24 324 327 333 292 251 250 253 264 285 202 331 73 95 148
341 342 352 357 2 356 353 347 345 344 342 345 345 343 333 326 330 47 41 94 43 53 332 289 250 274 287 179 300 295 355 331 303 327 349 347 295 329 196 34 89 19 26 311 287 108 68
332 337 341 346 351 356 351 346 345 342 337 339 344 344 339 329 115 63 37 356 23 110 23 330 344 323 298 244 300 249 166 330 339 325 336 297 323 0 12 34 9 79 337 304 119 12 134
322 327 330 335 340 346 347 346 343 341 336 337 340 343 351 40 137 74 132 9 332 57 350 322 304 262 307 289 318 2 5 20 329 316 352 306 325 359 359 347 324 30 348 16 87 60 37
313 319 324 330 333 337 341 343 341 337 337 338 337 339 357 17 55 111 106 67 10 59 320 347 304 342 11 322 315 315 12 28 277 314 267 268 278 229 269 305 307 322 85 46 54 59 327
301 311 317 323 325 330 335 337 338 338 336 340 338 338 85 89 78 137 85 54 354 42 324 329 331 343 328 311 326 8 8 33 33 357 359 322 257 266 254 85 97 141 105 6 44 268 230
296 293 303 312 318 324 328 333 336 337 335 341 341 72 46 79 123 109 57 61 357 267 265 318 316 313 288 354 308 342 3 43 95 100 310 333 353 19 2 292 173 115 139 164 312 227 267
284 291 293 302 310 315 322 328 334 335 336 339 360 17 68 36 124 87 78 36 267 217 240 314 319 319 303 323 296 359 347 303 267 155 71 358 293 336 4 358 359 19 107 155 121 49 270
272 279 285 291 301 305 314 322 330 335 338 343 47 90 51 329 123 81 84 283 240 224 174 148 309 316 297 310 335 18 319 278 313 257 283 209 295 294 306 36 54 31 115 341 38 274 272
263 267 274 278 290 296 304 315 326 335 341 343 23 303 179 108 98 72 309 256 252 230 217 189 205 246 244 292 277 289 261 261 212 309 239 291 283 285 307 96 125 11 353 3 142 110 314
254 263 266 266 278 286 296 307 321 335 344 41 37 282 11 74 303 73 239 207 240 208 191 265 249 225 224 244 273 272 259 231 181 193 252 234 187 276 268 100 228 281 189 155 278 316 192
250 252 258 264 268 274 283 295 309 334 8 338 298 263 27 110 257 258 254 260 234 207 213 198 252 231 198 233 283 235 268 193 171 185 204 181 270 314 322 17 5 339 226 137 124 22 227
245 245 252 253 256 265 273 278 291 314 350 122 301 280 266 89 319 192 254 260 254 214 248 204 235 213 234 252 224 271 283 271 212 179 148 158 210 231 251 254 245 288 255 203 173 249 276
242 240 240 246 249 249 260 269 273 290 335 158 192 253 299 238 229 194 188 229 236 269 218 212 239 218 208 263 248 241 238 295 216 123 119 142 269 229 267 268 259 254 253 223 218 218 237
237 235 234 238 243 242 245 254 262 266 145 205 225 204 148 237 303 206 212 223 215 236 198 223 224 219 211 234 227 240 229 207 226 152 284 341 273 332 300 334 232 274 256 242 239 242 258
248 233 229 228 230 233 235 241 243 235 196 224 178 201 165 221 168 189 236 212 201 180 218 213 213 214 233 243 247 257 243 255 220 191 184 256 305 345 274 326 315 292 262 212 199 204 205
306 233 224 220 220 220 225 233 230 221 203 234 212 150 163 248 206 212 232 213 223 215 239 215 191 195 220 92 86 346 244 252 242 236 193 169 171 230 281 328 278 296 130 204 217 244 220
324 247 221 215 216 213 212 219 226 221 199 211 192 204 185 237 214 240 226 226 217 195 220 236 224 172 109 76 286 295 270 265 226 232 202 187 156 244 277 291 294 36 276 187 197 302 223
335 264 220 212 210 210 207 209 213 216 196 181 215 168 200 211 238 176 186 204 216 209 254 217 124 115 93 153 200 239 242 250 224 172 63 115 143 190 195 259 267 52 149 203 172 309 228
341 279 214 207 206 205 201 206 208 207 192 180 212 172 160 237 250 169 194 190 164 165 199 207 175 154 122 182 215 226 245 215 244 203 176 166 184 217 220 253 286 265 170 163 20 319 256
350 346 204 202 198 200 199 198 206 205 192 176 206 181 185 214 267 218 211 160 142 175 183 163 136 190 140 196 209 218 219 226 250 189 181 188 176 198 169 214 285 182 134 206 310 318 299
9 10 351 200 197 196 198 201 202 202 193 183 212 169 163 207 264 247 245 231 188 185 169 175 245 163 176 161 211 244 240 226 211 236 168 237 206 345 215 253 312 227 256 285 307 303 327